ALK181 VCBI-VNKT

Flight info

Callsign ALK181
Flight time 2h 54m
Altitude 39000
Route ATETA1D ATETA DCT SAGOR DCT VATMO DCT KASRO DCT VVZ DCT OSUDU/N0443F400 DCT RRC/N0437F390 DCT IPLAS R581 ROMEO ROMEO3R
Aircraft A332/H-SDE3GHIJ2J3J5M1RVWXY/LB2D1

Departure

Time 2026-04-23 06:10
Airport Bandaranaike International Colombo Airport (VCBI)

Arrival

Time 2026-04-23 09:05
Airport Tribhuvan International Airport (VNKT)
Time Latitude Longitude Altitude Speed Heading
2026-04-23 06:02 7.17843 79.88591 38 ft 0 kts 58°
2026-04-23 06:03 7.17842 79.88590 38 ft 1 kts 57°
2026-04-23 06:04 7.17832 79.88575 37 ft 3 kts 47°
2026-04-23 06:04 7.17817 79.88562 37 ft 3 kts 28°
2026-04-23 06:04 7.17799 79.88555 37 ft 3 kts
2026-04-23 06:04 7.17780 79.88557 37 ft 3 kts 333°
2026-04-23 06:05 7.17766 79.88567 33 ft 1 kts 307°
2026-04-23 06:05 7.17765 79.88569 35 ft 0 kts 306°
2026-04-23 06:06 7.17774 79.88556 36 ft 6 kts 306°
2026-04-23 06:06 7.17816 79.88499 38 ft 14 kts 308°
2026-04-23 06:06 7.17900 79.88459 38 ft 16 kts 15°
2026-04-23 06:07 7.18010 79.88534 38 ft 23 kts 36°
2026-04-23 06:07 7.18156 79.88641 38 ft 29 kts 36°
2026-04-23 06:07 7.18332 79.88776 39 ft 34 kts 37°
2026-04-23 06:07 7.18535 79.88932 39 ft 39 kts 37°
2026-04-23 06:08 7.18760 79.89105 40 ft 43 kts 38°
2026-04-23 06:08 7.18983 79.89275 39 ft 36 kts 37°
2026-04-23 06:08 7.19122 79.89381 39 ft 20 kts 38°
2026-04-23 06:08 7.19223 79.89403 39 ft 15 kts 324°
2026-04-23 06:09 7.19283 79.89326 39 ft 13 kts 295°
2026-04-23 06:09 7.19252 79.89252 39 ft 12 kts 222°
2026-04-23 06:09 7.19162 79.89183 40 ft 31 kts 217°
2026-04-23 06:09 7.18779 79.88891 41 ft 112 kts 217°
2026-04-23 06:10 7.17926 79.88241 200 ft 186 kts 218°
2026-04-23 06:10 7.16795 79.87340 892 ft 229 kts 219°
2026-04-23 06:10 7.15441 79.86227 1654 ft 272 kts 219°
2026-04-23 06:10 7.13936 79.84971 2500 ft 282 kts 224°
2026-04-23 06:11 7.12819 79.83382 3530 ft 278 kts 246°
2026-04-23 06:11 7.12482 79.81487 4527 ft 277 kts 276°
2026-04-23 06:11 7.13149 79.79694 5429 ft 277 kts 307°
2026-04-23 06:11 7.14610 79.78459 6343 ft 277 kts 338°
2026-04-23 06:12 7.16503 79.78157 7142 ft 280 kts
2026-04-23 06:12 7.18452 79.78548 7794 ft 294 kts 18°
2026-04-23 06:12 7.22247 79.80520 8953 ft 323 kts 38°
2026-04-23 06:13 7.23980 79.82039 9460 ft 339 kts 44°
2026-04-23 06:13 7.25787 79.83648 9996 ft 351 kts 40°
2026-04-23 06:13 7.27684 79.85149 11058 ft 343 kts 38°
2026-04-23 06:13 7.29543 79.86585 12079 ft 340 kts 38°
2026-04-23 06:14 7.31430 79.88037 12966 ft 343 kts 38°
2026-04-23 06:14 7.33333 79.89499 13767 ft 347 kts 37°
2026-04-23 06:14 7.35398 79.90782 14462 ft 352 kts 24°
2026-04-23 06:14 7.37781 79.91389 15158 ft 358 kts
2026-04-23 06:15 7.40284 79.91530 15866 ft 362 kts
2026-04-23 06:15 7.42817 79.91582 16564 ft 367 kts
2026-04-23 06:15 7.45384 79.91629 17245 ft 371 kts
2026-04-23 06:15 7.47981 79.91683 17925 ft 375 kts
2026-04-23 06:16 7.50608 79.91744 18544 ft 379 kts
2026-04-23 06:16 7.53258 79.91809 19138 ft 383 kts
2026-04-23 06:16 7.55939 79.91878 19709 ft 387 kts
2026-04-23 06:16 7.58640 79.91948 20290 ft 390 kts
2026-04-23 06:17 7.61373 79.92020 20845 ft 395 kts
2026-04-23 06:17 7.64132 79.92093 21395 ft 399 kts
2026-04-23 06:17 7.66917 79.92168 21974 ft 402 kts
2026-04-23 06:17 7.69727 79.92244 22516 ft 406 kts
2026-04-23 06:18 7.72567 79.92321 23072 ft 410 kts
2026-04-23 06:18 7.75436 79.92399 23585 ft 414 kts
2026-04-23 06:18 7.78334 79.92477 24002 ft 419 kts
2026-04-23 06:18 7.81265 79.92557 24408 ft 424 kts
2026-04-23 06:19 7.84231 79.92631 24830 ft 428 kts 360°
2026-04-23 06:19 7.87215 79.92461 25265 ft 431 kts 352°
2026-04-23 06:19 7.90184 79.91971 25693 ft 435 kts 349°
2026-04-23 06:19 7.93167 79.91398 26102 ft 439 kts 348°
2026-04-23 06:20 7.96177 79.90808 26511 ft 443 kts 348°
2026-04-23 06:20 7.99215 79.90215 26908 ft 447 kts 348°
2026-04-23 06:20 8.02290 79.89617 27313 ft 451 kts 348°
2026-04-23 06:20 8.05384 79.89017 27709 ft 455 kts 348°
2026-04-23 06:21 8.08459 79.88422 28096 ft 458 kts 348°
2026-04-23 06:21 8.11609 79.87813 28500 ft 462 kts 348°
2026-04-23 06:21 8.14775 79.87201 28889 ft 466 kts 348°
2026-04-23 06:21 8.17973 79.86584 29272 ft 470 kts 348°
2026-04-23 06:22 8.21198 79.85969 29652 ft 473 kts 348°
2026-04-23 06:22 8.24451 79.85350 30006 ft 477 kts 348°
2026-04-23 06:22 8.27728 79.84727 30313 ft 481 kts 348°
2026-04-23 06:22 8.31026 79.84100 30623 ft 484 kts 348°
2026-04-23 06:23 8.34352 79.83467 30936 ft 488 kts 348°
2026-04-23 06:23 8.37696 79.82830 31239 ft 491 kts 348°
2026-04-23 06:23 8.41061 79.82190 31554 ft 494 kts 348°
2026-04-23 06:23 8.44452 79.81544 31887 ft 497 kts 348°
2026-04-23 06:24 8.47853 79.80897 32330 ft 496 kts 348°
2026-04-23 06:24 8.51243 79.80251 32763 ft 497 kts 348°
2026-04-23 06:24 8.54644 79.79603 33185 ft 497 kts 348°
2026-04-23 06:24 8.58043 79.78955 33606 ft 497 kts 348°
2026-04-23 06:25 8.61401 79.78315 34008 ft 497 kts 348°
2026-04-23 06:25 8.64801 79.77667 34404 ft 496 kts 348°
2026-04-23 06:25 8.68193 79.77021 34820 ft 495 kts 348°
2026-04-23 06:25 8.71572 79.76376 35224 ft 494 kts 348°
2026-04-23 06:26 8.74946 79.75733 35620 ft 493 kts 348°
2026-04-23 06:26 8.78315 79.75090 36001 ft 492 kts 347°
2026-04-23 06:26 8.81678 79.74449 36369 ft 492 kts 347°
2026-04-23 06:26 8.85037 79.73807 36735 ft 491 kts 347°
2026-04-23 06:27 8.88397 79.73166 37106 ft 491 kts 347°
2026-04-23 06:27 8.91751 79.72526 37458 ft 490 kts 347°
2026-04-23 06:27 8.95093 79.71888 37835 ft 489 kts 347°
2026-04-23 06:27 8.98440 79.71249 38194 ft 489 kts 347°
2026-04-23 06:28 9.01775 79.70612 38533 ft 488 kts 347°
2026-04-23 06:28 9.05112 79.69974 38786 ft 488 kts 347°
2026-04-23 06:28 9.11818 79.68692 38860 ft 492 kts 347°
2026-04-23 06:29 9.18560 79.67403 38854 ft 493 kts 347°
2026-04-23 06:29 9.25305 79.66146 38864 ft 494 kts 350°
2026-04-23 06:30 9.31016 79.66111 38866 ft 497 kts
2026-04-23 06:30 9.34369 79.66962 38856 ft 497 kts 20°
2026-04-23 06:30 9.37501 79.68441 38869 ft 497 kts 30°
2026-04-23 06:31 9.43446 79.72043 38850 ft 499 kts 33°
2026-04-23 06:31 9.49292 79.75838 38848 ft 499 kts 33°
2026-04-23 06:32 9.55141 79.79620 38843 ft 499 kts 33°
2026-04-23 06:32 9.61013 79.83370 38847 ft 498 kts 33°
2026-04-23 06:33 9.66892 79.87104 38853 ft 498 kts 33°
2026-04-23 06:33 9.72730 79.90810 38853 ft 499 kts 33°
2026-04-23 06:34 9.78619 79.94552 38854 ft 500 kts 33°
2026-04-23 06:34 9.84510 79.98299 38852 ft 500 kts 33°
2026-04-23 06:35 9.90402 80.02048 38847 ft 500 kts 33°
2026-04-23 06:35 9.96291 80.05797 38849 ft 500 kts 33°
2026-04-23 06:36 10.02467 80.08991 38852 ft 499 kts 22°
2026-04-23 06:36 10.08971 80.11497 38852 ft 500 kts 19°
2026-04-23 06:37 10.15534 80.13873 38852 ft 501 kts 19°
2026-04-23 06:37 10.22094 80.16238 38851 ft 501 kts 19°
2026-04-23 06:38 10.28655 80.18623 38853 ft 500 kts 19°
2026-04-23 06:38 10.35162 80.21001 38852 ft 500 kts 19°
2026-04-23 06:39 10.41711 80.23397 38854 ft 500 kts 19°
2026-04-23 06:39 10.48260 80.25794 38853 ft 500 kts 19°
2026-04-23 06:40 10.54817 80.28195 38853 ft 501 kts 19°
2026-04-23 06:40 10.61376 80.30597 38854 ft 501 kts 19°
2026-04-23 06:41 10.67927 80.32997 38851 ft 501 kts 19°
2026-04-23 06:41 10.74483 80.35400 38854 ft 501 kts 19°
2026-04-23 06:42 10.80997 80.37789 38855 ft 501 kts 19°
2026-04-23 06:42 10.87556 80.40195 38853 ft 501 kts 19°
2026-04-23 06:43 10.94114 80.42602 38854 ft 501 kts 19°
2026-04-23 06:43 11.00683 80.45015 38854 ft 501 kts 19°
2026-04-23 06:44 11.07246 80.47426 38853 ft 501 kts 19°
2026-04-23 06:44 11.13806 80.49838 38854 ft 501 kts 19°
2026-04-23 06:45 11.20370 80.52252 38851 ft 501 kts 18°
2026-04-23 06:45 11.26943 80.54670 38851 ft 502 kts 18°
2026-04-23 06:46 11.33468 80.57072 38851 ft 501 kts 18°
2026-04-23 06:46 11.40027 80.59488 38851 ft 501 kts 18°
2026-04-23 06:47 11.46590 80.61906 38854 ft 501 kts 18°
2026-04-23 06:47 11.53153 80.64326 38853 ft 501 kts 18°
2026-04-23 06:48 11.59714 80.66746 38851 ft 501 kts 18°
2026-04-23 06:48 11.66273 80.69166 38851 ft 501 kts 18°
2026-04-23 06:49 11.72842 80.71592 38851 ft 501 kts 18°
2026-04-23 06:49 11.79397 80.74013 38851 ft 501 kts 18°
2026-04-23 06:50 11.85957 80.76438 38851 ft 501 kts 18°
2026-04-23 06:50 11.92515 80.78863 38852 ft 502 kts 18°
2026-04-23 06:51 11.99086 80.81294 38851 ft 502 kts 18°
2026-04-23 06:51 12.05660 80.83727 38848 ft 503 kts 18°
2026-04-23 06:52 12.12196 80.86148 38848 ft 503 kts 18°
2026-04-23 06:52 12.18768 80.88583 38848 ft 503 kts 18°
2026-04-23 06:53 12.25343 80.91021 38848 ft 503 kts 18°
2026-04-23 06:53 12.31919 80.93460 38851 ft 503 kts 18°
2026-04-23 06:54 12.38501 80.95903 38848 ft 503 kts 18°
2026-04-23 06:54 12.45076 80.98345 38848 ft 503 kts 18°
2026-04-23 06:55 12.51660 81.00791 38846 ft 503 kts 18°
2026-04-23 06:55 12.58239 81.03237 38846 ft 503 kts 18°
2026-04-23 06:56 12.64821 81.05685 38846 ft 503 kts 17°
2026-04-23 06:56 12.71404 81.08135 38846 ft 504 kts 17°
2026-04-23 06:57 12.77992 81.10588 38845 ft 504 kts 17°
2026-04-23 06:57 12.84548 81.13031 38845 ft 504 kts 17°
2026-04-23 06:58 12.91140 81.15488 38844 ft 504 kts 17°
2026-04-23 06:58 12.97730 81.17946 38846 ft 504 kts 17°
2026-04-23 06:59 13.04326 81.20407 38844 ft 504 kts 17°
2026-04-23 06:59 13.10924 81.22871 38847 ft 505 kts 17°
2026-04-23 07:00 13.17525 81.25337 38844 ft 505 kts 17°
2026-04-23 07:00 13.24138 81.27810 38846 ft 505 kts 17°
2026-04-23 07:01 13.30693 81.30262 38842 ft 505 kts 17°
2026-04-23 07:01 13.37293 81.32732 38845 ft 504 kts 17°
2026-04-23 07:02 13.43887 81.35201 38845 ft 505 kts 17°
2026-04-23 07:02 13.50482 81.37673 38843 ft 505 kts 17°
2026-04-23 07:03 13.57082 81.40147 38842 ft 505 kts 17°
2026-04-23 07:03 13.63678 81.42622 38843 ft 505 kts 17°
2026-04-23 07:04 13.70270 81.45114 38840 ft 505 kts 18°
2026-04-23 07:04 13.76751 81.47958 38843 ft 507 kts 21°
2026-04-23 07:05 13.83173 81.50982 38843 ft 508 kts 22°
2026-04-23 07:05 13.89565 81.53981 38843 ft 507 kts 21°
2026-04-23 07:06 13.96002 81.56964 38843 ft 507 kts 21°
2026-04-23 07:06 14.02452 81.59937 38843 ft 507 kts 21°
2026-04-23 07:07 14.08896 81.62906 38845 ft 508 kts 21°
2026-04-23 07:07 14.15348 81.65882 38837 ft 509 kts 21°
2026-04-23 07:08 14.21816 81.68868 38839 ft 509 kts 21°
2026-04-23 07:08 14.28277 81.71854 38840 ft 509 kts 21°
2026-04-23 07:09 14.34728 81.74837 38840 ft 509 kts 21°
2026-04-23 07:09 14.41196 81.77829 38838 ft 509 kts 21°
2026-04-23 07:10 14.47654 81.80819 38838 ft 509 kts 21°
2026-04-23 07:10 14.54119 81.83814 38837 ft 509 kts 21°
2026-04-23 07:11 14.60537 81.86789 38834 ft 509 kts 21°
2026-04-23 07:12 14.70232 81.91287 38837 ft 509 kts 21°
2026-04-23 07:12 14.76688 81.94284 38837 ft 509 kts 21°
2026-04-23 07:13 14.83147 81.97285 38838 ft 509 kts 21°
2026-04-23 07:13 14.89609 82.00289 38837 ft 509 kts 21°
2026-04-23 07:14 14.96072 82.03296 38837 ft 509 kts 21°
2026-04-23 07:14 15.02536 82.06305 38837 ft 509 kts 21°
2026-04-23 07:15 15.09000 82.09316 38833 ft 509 kts 21°
2026-04-23 07:15 15.15462 82.12328 38834 ft 509 kts 21°
2026-04-23 07:16 15.21890 82.15326 38836 ft 510 kts 21°
2026-04-23 07:16 15.28368 82.18350 38834 ft 509 kts 21°
2026-04-23 07:17 15.34831 82.21369 38834 ft 509 kts 21°
2026-04-23 07:17 15.41294 82.24390 38836 ft 509 kts 21°
2026-04-23 07:18 15.47755 82.27412 38834 ft 509 kts 21°
2026-04-23 07:18 15.54217 82.30437 38835 ft 510 kts 21°
2026-04-23 07:19 15.60688 82.33467 38831 ft 510 kts 21°
2026-04-23 07:19 15.67108 82.36475 38834 ft 510 kts 21°
2026-04-23 07:20 15.72558 82.38933 38834 ft 509 kts 19°
2026-04-23 07:20 15.79080 82.41785 38836 ft 508 kts 19°
2026-04-23 07:21 15.85593 82.44629 38834 ft 507 kts 19°
2026-04-23 07:21 15.92054 82.47467 38834 ft 508 kts 19°
2026-04-23 07:22 15.98564 82.50335 38837 ft 509 kts 19°
2026-04-23 07:22 16.05079 82.53211 38834 ft 508 kts 19°
2026-04-23 07:23 16.11593 82.56087 38832 ft 508 kts 19°
2026-04-23 07:23 16.18104 82.58964 38832 ft 508 kts 19°
2026-04-23 07:24 16.24619 82.61844 38832 ft 509 kts 19°
2026-04-23 07:24 16.31137 82.64728 38829 ft 509 kts 19°
2026-04-23 07:25 16.37652 82.67613 38826 ft 509 kts 19°
2026-04-23 07:25 16.44171 82.70501 38826 ft 509 kts 19°
2026-04-23 07:26 16.50691 82.73392 38818 ft 509 kts 19°
2026-04-23 07:26 16.57212 82.76286 38821 ft 509 kts 19°
2026-04-23 07:27 16.63687 82.79162 38823 ft 509 kts 19°
2026-04-23 07:27 16.70202 82.82057 38818 ft 508 kts 19°
2026-04-23 07:28 16.76721 82.84956 38818 ft 508 kts 19°
2026-04-23 07:28 16.83233 82.87854 38818 ft 508 kts 19°
2026-04-23 07:29 16.89744 82.90754 38818 ft 508 kts 19°
2026-04-23 07:29 16.96247 82.93653 38809 ft 509 kts 19°
2026-04-23 07:30 17.02761 82.96558 38812 ft 509 kts 19°
2026-04-23 07:30 17.09275 82.99466 38807 ft 509 kts 19°
2026-04-23 07:31 17.15746 83.02357 38805 ft 509 kts 19°
2026-04-23 07:31 17.22256 83.05267 38803 ft 509 kts 19°
2026-04-23 07:32 17.28766 83.08180 38803 ft 509 kts 19°
2026-04-23 07:32 17.35281 83.11098 38799 ft 509 kts 19°
2026-04-23 07:33 17.41788 83.14014 38795 ft 509 kts 19°
2026-04-23 07:33 17.48301 83.16934 38796 ft 509 kts 19°
2026-04-23 07:34 17.54804 83.19854 38788 ft 508 kts 19°
2026-04-23 07:34 17.61299 83.22771 38799 ft 508 kts 19°
2026-04-23 07:35 17.67798 83.25695 38804 ft 508 kts 19°
2026-04-23 07:35 17.74282 83.28640 38804 ft 508 kts 19°
2026-04-23 07:36 17.80766 83.31599 38799 ft 508 kts 19°
2026-04-23 07:36 17.87254 83.34559 38799 ft 508 kts 19°
2026-04-23 07:37 17.93748 83.37522 38803 ft 509 kts 19°
2026-04-23 07:37 18.00244 83.40488 38804 ft 509 kts 19°
2026-04-23 07:38 18.06732 83.43452 38802 ft 509 kts 19°
2026-04-23 07:38 18.13178 83.46400 38797 ft 509 kts 19°
2026-04-23 07:39 18.19670 83.49371 38802 ft 508 kts 19°
2026-04-23 07:39 18.26156 83.52342 38801 ft 508 kts 19°
2026-04-23 07:40 18.32648 83.55319 38803 ft 508 kts 19°
2026-04-23 07:40 18.39115 83.58287 38800 ft 507 kts 18°
2026-04-23 07:41 18.45583 83.61257 38799 ft 507 kts 18°
2026-04-23 07:41 18.52058 83.64232 38801 ft 507 kts 18°
2026-04-23 07:42 18.58529 83.67209 38801 ft 507 kts 19°
2026-04-23 07:42 18.65002 83.70189 38797 ft 507 kts 19°
2026-04-23 07:43 18.71472 83.73170 38799 ft 507 kts 19°
2026-04-23 07:43 18.77941 83.76152 38797 ft 507 kts 19°
2026-04-23 07:44 18.84404 83.79133 38797 ft 507 kts 19°
2026-04-23 07:44 18.90865 83.82121 38798 ft 507 kts 19°
2026-04-23 07:45 18.97325 83.85107 38798 ft 507 kts 19°
2026-04-23 07:45 19.03753 83.88080 38802 ft 507 kts 18°
2026-04-23 07:46 19.10226 83.91077 38799 ft 508 kts 19°
2026-04-23 07:46 19.16698 83.94076 38801 ft 507 kts 19°
2026-04-23 07:47 19.23150 83.97069 38800 ft 506 kts 18°
2026-04-23 07:47 19.29593 84.00061 38794 ft 506 kts 18°
2026-04-23 07:48 19.36043 84.03060 38797 ft 506 kts 19°
2026-04-23 07:48 19.42499 84.06061 38798 ft 507 kts 18°
2026-04-23 07:49 19.48968 84.09071 38802 ft 508 kts 18°
2026-04-23 07:49 19.55444 84.12087 38801 ft 508 kts 18°
2026-04-23 07:50 19.61917 84.15105 38793 ft 508 kts 19°
2026-04-23 07:50 19.68388 84.18128 38792 ft 508 kts 19°
2026-04-23 07:51 19.74828 84.21135 38794 ft 510 kts 18°
2026-04-23 07:51 19.81344 84.24176 38781 ft 512 kts 18°
2026-04-23 07:52 19.87868 84.27231 38780 ft 512 kts 18°
2026-04-23 07:52 19.94390 84.30291 38782 ft 512 kts 18°
2026-04-23 07:53 20.00900 84.33344 38775 ft 510 kts 18°
2026-04-23 07:53 20.07395 84.36390 38782 ft 510 kts 18°
2026-04-23 07:54 20.13910 84.39446 38762 ft 512 kts 18°
2026-04-23 07:54 20.20428 84.42511 38756 ft 512 kts 18°
2026-04-23 07:55 20.26895 84.45555 38754 ft 511 kts 18°
2026-04-23 07:55 20.33402 84.48620 38752 ft 512 kts 18°
2026-04-23 07:56 20.39922 84.51693 38736 ft 513 kts 18°
2026-04-23 07:56 20.46441 84.54769 38729 ft 512 kts 18°
2026-04-23 07:57 20.52957 84.57846 38723 ft 512 kts 18°
2026-04-23 07:57 20.59468 84.60925 38722 ft 512 kts 18°
2026-04-23 07:58 20.65983 84.64007 38717 ft 512 kts 18°
2026-04-23 07:58 20.72500 84.67093 38723 ft 512 kts 18°
2026-04-23 07:59 20.79006 84.70179 38712 ft 510 kts 18°
2026-04-23 07:59 20.85485 84.73254 38714 ft 510 kts 18°
2026-04-23 08:00 20.91968 84.76332 38713 ft 510 kts 18°
2026-04-23 08:00 20.98455 84.79415 38721 ft 510 kts 18°
2026-04-23 08:01 21.04899 84.82481 38718 ft 510 kts 18°
2026-04-23 08:01 21.11384 84.85570 38724 ft 511 kts 17°
2026-04-23 08:02 21.17880 84.88666 38724 ft 511 kts 17°
2026-04-23 08:02 21.24383 84.91769 38737 ft 511 kts 17°
2026-04-23 08:03 21.30888 84.94879 38736 ft 512 kts 17°
2026-04-23 08:03 21.37394 84.97989 38752 ft 511 kts 17°
2026-04-23 08:04 21.43895 85.01100 38762 ft 512 kts 17°
2026-04-23 08:04 21.50401 85.04215 38772 ft 513 kts 17°
2026-04-23 08:05 21.56911 85.07338 38766 ft 511 kts 17°
2026-04-23 08:05 21.63406 85.10457 38789 ft 511 kts 17°
2026-04-23 08:06 21.69851 85.13553 38796 ft 510 kts 17°
2026-04-23 08:06 21.76340 85.16673 38798 ft 511 kts 17°
2026-04-23 08:07 21.82833 85.19799 38798 ft 512 kts 17°
2026-04-23 08:07 21.89346 85.22938 38812 ft 512 kts 17°
2026-04-23 08:08 21.95856 85.26079 38797 ft 513 kts 17°
2026-04-23 08:08 22.02327 85.29205 38811 ft 512 kts 17°
2026-04-23 08:09 22.08832 85.32349 38811 ft 512 kts 17°
2026-04-23 08:09 22.15342 85.35499 38818 ft 512 kts 17°
2026-04-23 08:10 22.20821 85.38004 38823 ft 505 kts
2026-04-23 08:10 22.25296 85.39010 38819 ft 487 kts 355°
2026-04-23 08:10 22.30853 85.39047 38825 ft 478 kts 348°
2026-04-23 08:11 22.37470 85.38666 38832 ft 476 kts 346°
2026-04-23 08:11 22.44082 85.38185 38833 ft 476 kts 346°
2026-04-23 08:12 22.50701 85.37727 38830 ft 476 kts 346°
2026-04-23 08:12 22.57326 85.37299 38840 ft 476 kts 346°
2026-04-23 08:13 22.63943 85.36882 38836 ft 476 kts 346°
2026-04-23 08:13 22.70518 85.36466 38847 ft 476 kts 346°
2026-04-23 08:14 22.77138 85.36046 38851 ft 476 kts 346°
2026-04-23 08:14 22.83746 85.35625 38856 ft 476 kts 346°
2026-04-23 08:15 22.90354 85.35204 38862 ft 476 kts 346°
2026-04-23 08:15 22.96971 85.34782 38866 ft 476 kts 346°
2026-04-23 08:16 23.03577 85.34361 38869 ft 475 kts 346°
2026-04-23 08:16 23.10195 85.33938 38878 ft 475 kts 346°
2026-04-23 08:17 23.16758 85.33518 38892 ft 476 kts 346°
2026-04-23 08:17 23.23372 85.33094 38887 ft 476 kts 346°
2026-04-23 08:18 23.29999 85.32726 38880 ft 482 kts 351°
2026-04-23 08:18 23.36759 85.33207 38900 ft 488 kts 355°
2026-04-23 08:19 23.43544 85.33910 38882 ft 491 kts 356°
2026-04-23 08:19 23.50340 85.34659 38880 ft 491 kts 356°
2026-04-23 08:20 23.57150 85.35401 38869 ft 491 kts 356°
2026-04-23 08:20 23.63945 85.36129 38863 ft 491 kts 355°
2026-04-23 08:21 23.70743 85.36852 38853 ft 491 kts 355°
2026-04-23 08:21 23.77547 85.37576 38849 ft 491 kts 355°
2026-04-23 08:22 23.84351 85.38301 38832 ft 491 kts 355°
2026-04-23 08:22 23.91157 85.39028 38831 ft 491 kts 355°
2026-04-23 08:23 23.97906 85.39750 38818 ft 491 kts 355°
2026-04-23 08:23 24.04731 85.40481 38819 ft 491 kts 355°
2026-04-23 08:24 24.11525 85.41209 38804 ft 490 kts 355°
2026-04-23 08:24 24.18314 85.41936 38804 ft 490 kts 355°
2026-04-23 08:25 24.25106 85.42665 38784 ft 490 kts 355°
2026-04-23 08:25 24.31885 85.43394 38782 ft 489 kts 355°
2026-04-23 08:26 24.38599 85.44126 38763 ft 474 kts 355°
2026-04-23 08:26 24.41843 85.44490 38763 ft 462 kts 354°
2026-04-23 08:26 24.45015 85.44842 38752 ft 456 kts 354°
2026-04-23 08:27 24.51316 85.45510 38751 ft 455 kts 354°
2026-04-23 08:27 24.57629 85.46175 38741 ft 455 kts 354°
2026-04-23 08:28 24.63891 85.46844 38764 ft 455 kts 354°
2026-04-23 08:28 24.70207 85.47525 38725 ft 456 kts 354°
2026-04-23 08:29 24.76529 85.48210 38737 ft 457 kts 354°
2026-04-23 08:29 24.82857 85.48898 38721 ft 457 kts 354°
2026-04-23 08:30 24.89178 85.49584 38717 ft 457 kts 354°
2026-04-23 08:30 24.95508 85.50271 38737 ft 457 kts 354°
2026-04-23 08:31 25.01826 85.50959 38714 ft 456 kts 354°
2026-04-23 08:31 25.08134 85.51647 38719 ft 455 kts 354°
2026-04-23 08:32 25.14437 85.52333 38717 ft 455 kts 354°
2026-04-23 08:32 25.20743 85.53019 38716 ft 455 kts 354°
2026-04-23 08:33 25.27041 85.53707 38711 ft 455 kts 354°
2026-04-23 08:33 25.33340 85.54395 38707 ft 455 kts 354°
2026-04-23 08:34 25.39640 85.55084 38710 ft 455 kts 354°
2026-04-23 08:34 25.46019 85.55770 38366 ft 467 kts 354°
2026-04-23 08:35 25.49256 85.56121 37952 ft 466 kts 354°
2026-04-23 08:35 25.52470 85.56478 37567 ft 463 kts 355°
2026-04-23 08:35 25.55671 85.56836 37131 ft 462 kts 355°
2026-04-23 08:35 25.58861 85.57191 36721 ft 460 kts 356°
2026-04-23 08:36 25.62036 85.57542 36271 ft 458 kts 356°
2026-04-23 08:36 25.65200 85.57891 35841 ft 456 kts 357°
2026-04-23 08:36 25.68312 85.58233 35394 ft 455 kts 358°
2026-04-23 08:36 25.71456 85.58577 34920 ft 454 kts 359°
2026-04-23 08:37 25.74594 85.58921 34410 ft 453 kts 359°
2026-04-23 08:37 25.77735 85.59265 33858 ft 454 kts
2026-04-23 08:37 25.80880 85.59610 33222 ft 454 kts
2026-04-23 08:37 25.84017 85.59955 32629 ft 453 kts
2026-04-23 08:38 25.87151 85.60301 32024 ft 451 kts
2026-04-23 08:38 25.90271 85.60646 31422 ft 450 kts
2026-04-23 08:38 25.93387 85.60991 30792 ft 449 kts
2026-04-23 08:38 25.96480 85.61333 30344 ft 443 kts
2026-04-23 08:39 25.99527 85.61670 29945 ft 437 kts
2026-04-23 08:39 26.02531 85.62002 29469 ft 431 kts
2026-04-23 08:39 26.05490 85.62330 29014 ft 424 kts
2026-04-23 08:39 26.08411 85.62654 28606 ft 418 kts
2026-04-23 08:40 26.11284 85.62972 28180 ft 412 kts
2026-04-23 08:40 26.14118 85.63286 27755 ft 407 kts
2026-04-23 08:40 26.16880 85.63592 27362 ft 402 kts
2026-04-23 08:40 26.19660 85.63901 26967 ft 401 kts
2026-04-23 08:41 26.22429 85.64208 26549 ft 399 kts
2026-04-23 08:41 26.25181 85.64513 26127 ft 396 kts
2026-04-23 08:41 26.27916 85.64817 25698 ft 393 kts
2026-04-23 08:41 26.30639 85.64857 25274 ft 391 kts 355°
2026-04-23 08:42 26.33303 85.64241 24758 ft 391 kts 341°
2026-04-23 08:42 26.35740 85.62925 24305 ft 389 kts 330°
2026-04-23 08:42 26.38027 85.61320 23887 ft 386 kts 326°
2026-04-23 08:42 26.40215 85.59603 23488 ft 384 kts 324°
2026-04-23 08:43 26.42356 85.57834 23042 ft 382 kts 323°
2026-04-23 08:43 26.44482 85.56050 22639 ft 381 kts 323°
2026-04-23 08:43 26.46593 85.54284 22218 ft 378 kts 324°
2026-04-23 08:43 26.48698 85.52539 21828 ft 375 kts 324°
2026-04-23 08:44 26.50794 85.50818 21426 ft 372 kts 324°
2026-04-23 08:44 26.52847 85.49143 21043 ft 368 kts 324°
2026-04-23 08:44 26.54901 85.47473 20652 ft 364 kts 324°
2026-04-23 08:44 26.56946 85.45815 20275 ft 362 kts 324°
2026-04-23 08:45 26.58980 85.44166 19892 ft 361 kts 324°
2026-04-23 08:45 26.61006 85.42522 19492 ft 359 kts 324°
2026-04-23 08:45 26.63023 85.40885 19118 ft 357 kts 324°
2026-04-23 08:45 26.65025 85.39258 18735 ft 355 kts 324°
2026-04-23 08:46 26.67015 85.37640 18358 ft 353 kts 324°
2026-04-23 08:46 26.68993 85.36031 17975 ft 351 kts 323°
2026-04-23 08:46 26.70958 85.34431 17562 ft 348 kts 323°
2026-04-23 08:46 26.72913 85.32838 17169 ft 346 kts 323°
2026-04-23 08:47 26.74859 85.31260 16789 ft 344 kts 324°
2026-04-23 08:47 26.76803 85.29706 16396 ft 342 kts 324°
2026-04-23 08:47 26.78738 85.28163 16017 ft 340 kts 324°
2026-04-23 08:47 26.80661 85.26630 15653 ft 339 kts 324°
2026-04-23 08:48 26.82574 85.25104 15261 ft 337 kts 324°
2026-04-23 08:48 26.84479 85.23583 14878 ft 335 kts 324°
2026-04-23 08:48 26.86370 85.22073 14512 ft 334 kts 324°
2026-04-23 08:48 26.88258 85.20565 14137 ft 332 kts 324°
2026-04-23 08:49 26.90132 85.19068 13757 ft 330 kts 324°
2026-04-23 08:49 26.92000 85.17574 13378 ft 329 kts 324°
2026-04-23 08:49 26.93853 85.16093 12989 ft 326 kts 324°
2026-04-23 08:49 26.95694 85.14619 12623 ft 324 kts 324°
2026-04-23 08:50 26.97496 85.13177 12273 ft 321 kts 323°
2026-04-23 08:50 26.99308 85.11726 11906 ft 319 kts 323°
2026-04-23 08:50 27.01085 85.10303 11745 ft 308 kts 323°
2026-04-23 08:50 27.02805 85.08951 11551 ft 299 kts 327°
2026-04-23 08:51 27.04686 85.07975 11188 ft 299 kts 343°
2026-04-23 08:51 27.06757 85.07780 10865 ft 301 kts
2026-04-23 08:51 27.08771 85.08370 10638 ft 297 kts 18°
2026-04-23 08:51 27.10656 85.09202 10529 ft 286 kts 20°
2026-04-23 08:52 27.12473 85.10039 10384 ft 283 kts 20°
2026-04-23 08:52 27.14331 85.10889 10326 ft 293 kts 20°
2026-04-23 08:52 27.16230 85.11751 10348 ft 296 kts 20°
2026-04-23 08:52 27.18140 85.12614 10357 ft 296 kts 20°
2026-04-23 08:53 27.20052 85.13476 10358 ft 296 kts 20°
2026-04-23 08:53 27.21966 85.14337 10361 ft 296 kts 20°
2026-04-23 08:53 27.23878 85.15196 10361 ft 296 kts 20°
2026-04-23 08:53 27.25774 85.16049 10355 ft 286 kts 20°
2026-04-23 08:54 27.27572 85.16858 10386 ft 271 kts 20°
2026-04-23 08:54 27.29261 85.17620 10398 ft 252 kts 20°
2026-04-23 08:54 27.30831 85.18331 10359 ft 236 kts 19°
2026-04-23 08:54 27.32313 85.19003 10241 ft 224 kts 20°
2026-04-23 08:55 27.33719 85.19641 10148 ft 211 kts 19°
2026-04-23 08:55 27.35040 85.20242 10033 ft 199 kts 19°
2026-04-23 08:55 27.36287 85.20808 9928 ft 187 kts 20°
2026-04-23 08:55 27.37456 85.21339 9818 ft 175 kts 19°
2026-04-23 08:56 27.38552 85.21837 9736 ft 164 kts 19°
2026-04-23 08:56 27.39563 85.22298 9593 ft 152 kts 19°
2026-04-23 08:56 27.40544 85.22742 9310 ft 153 kts 19°
2026-04-23 08:56 27.41532 85.23188 9026 ft 152 kts 19°
2026-04-23 08:57 27.42510 85.23631 8777 ft 151 kts 18°
2026-04-23 08:57 27.43470 85.24067 8618 ft 147 kts 20°
2026-04-23 08:57 27.44109 85.24311 8613 ft 147 kts
2026-04-23 08:57 27.45126 85.24460 8622 ft 149 kts
2026-04-23 08:58 27.46527 85.24561 8625 ft 152 kts 359°
2026-04-23 08:58 27.47230 85.24602 8561 ft 153 kts 358°
2026-04-23 08:58 27.48289 85.24556 8316 ft 151 kts 347°
2026-04-23 08:58 27.49331 85.24391 8037 ft 152 kts 352°
2026-04-23 08:59 27.50369 85.24205 7769 ft 151 kts 347°
2026-04-23 08:59 27.51416 85.24028 7662 ft 152 kts 348°
2026-04-23 08:59 27.52477 85.23952 7574 ft 152 kts 356°
2026-04-23 08:59 27.53533 85.24018 7468 ft 153 kts
2026-04-23 09:00 27.54569 85.24318 7354 ft 155 kts 16°
2026-04-23 09:00 27.55537 85.24828 7197 ft 152 kts 25°
2026-04-23 09:00 27.56364 85.25560 7041 ft 155 kts 38°
2026-04-23 09:00 27.57133 85.26376 6838 ft 149 kts 39°
2026-04-23 09:01 27.57859 85.27214 6676 ft 151 kts 48°
2026-04-23 09:01 27.58496 85.28172 6522 ft 152 kts 48°
2026-04-23 09:01 27.59117 85.29124 6306 ft 150 kts 47°
2026-04-23 09:01 27.59809 85.30002 6142 ft 149 kts 39°
2026-04-23 09:02 27.60603 85.30727 5979 ft 148 kts 34°
2026-04-23 09:02 27.61425 85.31437 5821 ft 149 kts 34°
2026-04-23 09:02 27.62257 85.32113 5590 ft 145 kts 30°
2026-04-23 09:02 27.63116 85.32713 5412 ft 146 kts 26°
2026-04-23 09:03 27.64024 85.33235 5293 ft 147 kts 22°
2026-04-23 09:03 27.64943 85.33732 5028 ft 146 kts 21°
2026-04-23 09:03 27.65868 85.34193 4848 ft 145 kts 18°
2026-04-23 09:03 27.66795 85.34637 4620 ft 144 kts 18°
2026-04-23 09:04 27.67737 85.35033 4580 ft 152 kts 15°
2026-04-23 09:04 27.68770 85.35513 4437 ft 163 kts 19°
2026-04-23 09:04 27.69728 85.35943 4399 ft 123 kts 22°
2026-04-23 09:04 27.70323 85.36215 4403 ft 50 kts 21°
2026-04-23 09:05 27.70499 85.36297 4407 ft 20 kts 21°
2026-04-23 09:05 27.70577 85.36278 4403 ft 6 kts 295°
2026-04-23 09:05 27.70573 85.36236 4402 ft 6 kts 260°
2026-04-23 09:05 27.70557 85.36210 4402 ft 4 kts 221°
2026-04-23 09:06 27.70528 85.36193 4402 ft 6 kts 206°
2026-04-23 09:06 27.70488 85.36172 4402 ft 7 kts 203°
2026-04-23 09:06 27.70436 85.36148 4402 ft 9 kts 202°
2026-04-23 09:06 27.70369 85.36117 4402 ft 12 kts 202°
2026-04-23 09:07 27.70288 85.36081 4402 ft 13 kts 201°
2026-04-23 09:07 27.70197 85.36040 4402 ft 15 kts 202°
2026-04-23 09:07 27.70097 85.35994 4401 ft 16 kts 202°
2026-04-23 09:07 27.69988 85.35944 4401 ft 17 kts 202°
2026-04-23 09:08 27.69878 85.35895 4401 ft 16 kts 201°
2026-04-23 09:08 27.69805 85.35851 4401 ft 5 kts 236°
2026-04-23 09:08 27.69801 85.35815 4401 ft 5 kts 277°
2026-04-23 09:08 27.69811 85.35777 4401 ft 5 kts 290°
2026-04-23 09:09 27.69816 85.35763 4401 ft 0 kts 290°
2026-04-23 09:20 0.00000 0.00000 1111 ft 0 kts 355°